| time (UTC) | temp C | wind direction | speed KPH | gust KPH | rain 1hr cm | rain 24hr cm | rain mn cm | humidity % | barometer mb |
| 20260506015449 | 26 | 230 | 1.6 | 1.6 | 0.00 | 0.00 | 0.00 | 81 | 1008.0 |
| 20260506014946 | 26 | 222 | 1.6 | 3.2 | 0.00 | 0.00 | 0.00 | 81 | 1008.0 |
| 20260506014443 | 26 | 233 | 0.0 | 1.6 | 0.00 | 0.00 | 0.00 | 80 | 1008.0 |
| 20260506013939 | 26 | 234 | 0.0 | 1.6 | 0.00 | 0.00 | 0.00 | 79 | 1007.6 |
| 20260506013437 | 26 | 187 | 1.6 | 1.6 | 0.00 | 0.00 | 0.00 | 79 | 1007.6 |
| 20260506012933 | 26 | 244 | 0.0 | 1.6 | 0.00 | 0.00 | 0.00 | 79 | 1008.0 |
| 20260506012430 | 27 | 226 | 0.0 | 0.0 | 0.00 | 0.00 | 0.00 | 78 | 1008.0 |
| 20260506011927 | 27 | 222 | 0.0 | 1.6 | 0.00 | 0.00 | 0.00 | 77 | 1008.0 |
| 20260506011425 | 27 | 236 | 0.0 | 1.6 | 0.00 | 0.00 | 0.00 | 77 | 1008.0 |
| 20260506010921 | 27 | 228 | 1.6 | 1.6 | 0.00 | 0.00 | 0.00 | 76 | 1007.6 |
| 20260506010420 | 27 | 225 | 1.6 | 1.6 | 0.00 | 0.00 | 0.00 | 76 | 1007.6 |
| 20260506005916 | 27 | 195 | 0.0 | 1.6 | 0.00 | 0.00 | 0.00 | 75 | 1007.6 |
| 20260506005414 | 27 | 218 | 1.6 | 1.6 | 0.00 | 0.00 | 0.00 | 74 | 1007.6 |
| 20260506004909 | 27 | 240 | 0.0 | 1.6 | 0.00 | 0.00 | 0.00 | 74 | 1007.6 |
| 20260506004407 | 28 | 216 | 1.6 | 1.6 | 0.00 | 0.00 | 0.00 | 73 | 1007.6 |
| 20260506003903 | 28 | 246 | 1.6 | 1.6 | 0.00 | 0.00 | 0.00 | 73 | 1007.3 |
| 20260506003359 | 28 | 222 | 1.6 | 1.6 | 0.00 | 0.00 | 0.00 | 73 | 1007.3 |
| 20260506002856 | 28 | 212 | 0.0 | 1.6 | 0.00 | 0.00 | 0.00 | 73 | 1007.6 |
| 20260506002352 | 28 | 205 | 1.6 | 3.2 | 0.00 | 0.00 | 0.00 | 73 | 1007.6 |
| 20260506001848 | 28 | 222 | 1.6 | 1.6 | 0.00 | 0.00 | 0.00 | 73 | 1007.6 |
| 20260506001345 | 28 | 245 | 1.6 | 1.6 | 0.00 | 0.00 | 0.00 | 73 | 1007.3 |
| 20260506000842 | 28 | 228 | 0.0 | 1.6 | 0.00 | 0.00 | 0.00 | 72 | 1007.3 |
| 20260506000340 | 28 | 223 | 3.2 | 3.2 | 0.00 | 0.00 | 0.00 | 72 | 1007.6 |
| 20260505235836 | 28 | 240 | 0.0 | 1.6 | 0.00 | 0.00 | 0.00 | 72 | 1007.3 |
| 20260505235334 | 28 | 209 | 3.2 | 4.8 | 0.00 | 0.00 | 0.00 | 71 | 1007.6 |
| 20260505234830 | 28 | 198 | 4.8 | 9.7 | 0.00 | 0.00 | 0.00 | 72 | 1006.9 |
| 20260505234328 | 28 | 224 | 4.8 | 8.0 | 0.00 | 0.00 | 0.00 | 72 | 1007.3 |
| 20260505233825 | 28 | 230 | 3.2 | 3.2 | 0.00 | 0.00 | 0.00 | 72 | 1007.3 |
| 20260505233323 | 28 | 210 | 4.8 | 4.8 | 0.00 | 0.00 | 0.00 | 72 | 1007.3 |
| 20260505232820 | 28 | 200 | 1.6 | 3.2 | 0.00 | 0.00 | 0.00 | 71 | 1007.3 |
| 20260505232318 | 28 | 158 | 4.8 | 8.0 | 0.00 | 0.00 | 0.00 | 71 | 1007.3 |
| 20260505231814 | 28 | 207 | 1.6 | 3.2 | 0.00 | 0.00 | 0.00 | 71 | 1007.3 |
| 20260505231312 | 28 | 149 | 3.2 | 3.2 | 0.00 | 0.00 | 0.00 | 71 | 1007.3 |
| 20260505230810 | 28 | 143 | 8.0 | 11.3 | 0.00 | 0.00 | 0.00 | 70 | 1007.3 |
| 20260505230307 | 28 | 210 | 3.2 | 4.8 | 0.00 | 0.00 | 0.00 | 71 | 1007.3 |
| 20260505225803 | 28 | 239 | 3.2 | 4.8 | 0.00 | 0.00 | 0.00 | 71 | 1006.9 |
| 20260505225301 | 28 | 220 | 1.6 | 3.2 | 0.00 | 0.00 | 0.00 | 71 | 1006.9 |
| 20260505224755 | 28 | 175 | 4.8 | 8.0 | 0.00 | 0.00 | 0.00 | 70 | 1006.9 |
| 20260505224254 | 28 | 193 | 3.2 | 4.8 | 0.00 | 0.00 | 0.00 | 70 | 1006.9 |
| 20260505223751 | 28 | 199 | 4.8 | 8.0 | 0.00 | 0.00 | 0.00 | 69 | 1006.9 |
| 20260505223247 | 28 | 168 | 4.8 | 8.0 | 0.00 | 0.00 | 0.00 | 69 | 1006.9 |
| 20260505222743 | 29 | 200 | 4.8 | 8.0 | 0.00 | 0.00 | 0.00 | 69 | 1006.9 |
| 20260505222240 | 29 | 118 | 3.2 | 3.2 | 0.00 | 0.00 | 0.00 | 69 | 1006.9 |
| 20260505221737 | 28 | 96 | 4.8 | 8.0 | 0.00 | 0.00 | 0.00 | 69 | 1007.3 |
| 20260505221233 | 29 | 185 | 8.0 | 9.7 | 0.00 | 0.00 | 0.00 | 69 | 1007.3 |
| 20260505220730 | 28 | 238 | 4.8 | 8.0 | 0.00 | 0.00 | 0.00 | 69 | 1007.3 |
| 20260505220228 | 28 | 221 | 4.8 | 4.8 | 0.00 | 0.00 | 0.00 | 70 | 1007.3 |
| 20260505215726 | 28 | 206 | 1.6 | 3.2 | 0.00 | 0.00 | 0.00 | 70 | 1006.9 |
| 20260505215223 | 28 | 185 | 4.8 | 4.8 | 0.00 | 0.00 | 0.00 | 71 | 1007.3 |
| 20260505214721 | 29 | 160 | 4.8 | 9.7 | 0.00 | 0.00 | 0.00 | 70 | 1007.6 |
| 20260505214218 | 29 | 199 | 3.2 | 4.8 | 0.00 | 0.00 | 0.00 | 70 | 1007.6 |
| 20260505213715 | 28 | 229 | 4.8 | 9.7 | 0.00 | 0.00 | 0.00 | 70 | 1007.6 |
| 20260505213212 | 28 | 148 | 4.8 | 4.8 | 0.00 | 0.00 | 0.00 | 70 | 1007.6 |
| 20260505212708 | 29 | 182 | 11.3 | 12.9 | 0.00 | 0.00 | 0.00 | 69 | 1007.6 |
| 20260505212206 | 29 | 226 | 3.2 | 4.8 | 0.00 | 0.00 | 0.00 | 68 | 1007.6 |
| 20260505211702 | 29 | 209 | 4.8 | 8.0 | 0.00 | 0.00 | 0.00 | 69 | 1007.6 |
| 20260505211200 | 28 | 178 | 4.8 | 4.8 | 0.00 | 0.00 | 0.00 | 70 | 1008.0 |
| 20260505210656 | 28 | 193 | 4.8 | 8.0 | 0.00 | 0.00 | 0.00 | 71 | 1007.6 |
| 20260505210153 | 29 | 248 | 3.2 | 4.8 | 0.00 | 0.00 | 0.00 | 70 | 1008.0 |
| 20260505205651 | 28 | 225 | 8.0 | 11.3 | 0.00 | 0.00 | 0.00 | 69 | 1008.0 |
| 20260505205149 | 28 | 197 | 6.4 | 9.7 | 0.00 | 0.00 | 0.00 | 70 | 1008.0 |
| 20260505204645 | 28 | 187 | 6.4 | 8.0 | 0.00 | 0.00 | 0.00 | 72 | 1008.3 |
| 20260505204143 | 28 | 132 | 4.8 | 9.7 | 0.00 | 0.00 | 0.00 | 73 | 1008.3 |
| 20260505203640 | 28 | 205 | 6.4 | 9.7 | 0.00 | 0.00 | 0.00 | 70 | 1008.3 |
| 20260505203137 | 28 | 274 | 3.2 | 3.2 | 0.00 | 0.00 | 0.00 | 71 | 1008.6 |
| 20260505202632 | 28 | 167 | 4.8 | 8.0 | 0.00 | 0.00 | 0.00 | 71 | 1008.6 |
| 20260505202128 | 28 | 198 | 4.8 | 4.8 | 0.00 | 0.00 | 0.00 | 72 | 1009.0 |
| 20260505201625 | 28 | 176 | 4.8 | 4.8 | 0.00 | 0.00 | 0.00 | 72 | 1008.6 |
| 20260505201123 | 28 | 184 | 3.2 | 3.2 | 0.00 | 0.00 | 0.00 | 72 | 1008.6 |
| 20260505200621 | 28 | 180 | 4.8 | 4.8 | 0.00 | 0.00 | 0.00 | 72 | 1009.0 |
| 20260505200118 | 28 | 214 | 4.8 | 4.8 | 0.00 | 0.00 | 0.00 | 71 | 1009.0 |
| 20260505195614 | 27 | 201 | 6.4 | 8.0 | 0.00 | 0.00 | 0.00 | 72 | 1009.0 |
| 20260505195111 | 28 | 177 | 3.2 | 4.8 | 0.00 | 0.00 | 0.00 | 72 | 1009.0 |
| 20260505194608 | 27 | 219 | 6.4 | 8.0 | 0.00 | 0.00 | 0.00 | 73 | 1009.0 |
| 20260505194104 | 27 | 214 | 4.8 | 4.8 | 0.00 | 0.00 | 0.00 | 73 | 1009.0 |
| 20260505193601 | 27 | 165 | 8.0 | 11.3 | 0.00 | 0.00 | 0.00 | 75 | 1009.3 |
| 20260505193058 | 26 | 237 | 3.2 | 3.2 | 0.00 | 0.00 | 0.00 | 76 | 1009.3 |
| 20260505192557 | 27 | 174 | 9.7 | 12.9 | 0.00 | 0.00 | 0.00 | 75 | 1009.3 |
| 20260505192054 | 27 | 207 | 3.2 | 3.2 | 0.00 | 0.00 | 0.00 | 75 | 1009.3 |
| 20260505191552 | 27 | 240 | 8.0 | 11.3 | 0.00 | 0.00 | 0.00 | 75 | 1009.3 |
| 20260505191050 | 27 | 225 | 8.0 | 12.9 | 0.00 | 0.00 | 0.00 | 75 | 1009.3 |
| 20260505190544 | 26 | 186 | 6.4 | 8.0 | 0.00 | 0.00 | 0.00 | 77 | 1009.6 |
| 20260505190040 | 26 | 196 | 8.0 | 11.3 | 0.00 | 0.00 | 0.00 | 76 | 1009.3 |
| 20260505185537 | 26 | 115 | 4.8 | 9.7 | 0.00 | 0.00 | 0.00 | 76 | 1009.6 |
| 20260505185034 | 26 | 224 | 8.0 | 9.7 | 0.00 | 0.00 | 0.00 | 77 | 1009.6 |
| 20260505184531 | 26 | 211 | 1.6 | 3.2 | 0.00 | 0.00 | 0.00 | 77 | 1009.6 |
| 20260505184027 | 26 | 220 | 4.8 | 4.8 | 0.00 | 0.00 | 0.00 | 78 | 1009.6 |
| 20260505183524 | 26 | 287 | 4.8 | 8.0 | 0.00 | 0.00 | 0.00 | 78 | 1010.0 |
| 20260505183022 | 26 | 193 | 4.8 | 4.8 | 0.00 | 0.00 | 0.00 | 77 | 1009.6 |
| 20260505182517 | 26 | 213 | 6.4 | 11.3 | 0.00 | 0.00 | 0.00 | 78 | 1010.0 |
| 20260505182014 | 25 | 232 | 4.8 | 9.7 | 0.00 | 0.00 | 0.00 | 79 | 1010.0 |
| 20260505181511 | 25 | 218 | 11.3 | 14.5 | 0.00 | 0.00 | 0.00 | 79 | 1010.0 |
| 20260505181009 | 25 | 235 | 4.8 | 8.0 | 0.00 | 0.00 | 0.00 | 81 | 1010.0 |
| 20260505180504 | 25 | 310 | 1.6 | 1.6 | 0.00 | 0.00 | 0.00 | 80 | 1010.3 |
| 20260505180002 | 25 | 197 | 6.4 | 8.0 | 0.00 | 0.00 | 0.00 | 81 | 1010.0 |
| 20260505175457 | 25 | 210 | 8.0 | 11.3 | 0.00 | 0.00 | 0.00 | 82 | 1010.0 |
| 20260505174954 | 25 | 201 | 6.4 | 9.7 | 0.00 | 0.00 | 0.00 | 82 | 1010.3 |
| 20260505174451 | 25 | 230 | 4.8 | 8.0 | 0.00 | 0.00 | 0.00 | 81 | 1010.3 |
| 20260505173947 | 25 | 250 | 6.4 | 9.7 | 0.00 | 0.00 | 0.00 | 81 | 1010.3 |
| 20260505173443 | 24 | 229 | 8.0 | 9.7 | 0.00 | 0.00 | 0.00 | 82 | 1010.3 |
| 20260505172941 | 24 | 229 | 8.0 | 11.3 | 0.00 | 0.00 | 0.00 | 82 | 1010.3 |
| 20260505172439 | 24 | 218 | 6.4 | 9.7 | 0.00 | 0.00 | 0.00 | 83 | 1010.3 |
| 20260505171938 | 24 | 207 | 8.0 | 9.7 | 0.00 | 0.00 | 0.00 | 83 | 1010.3 |
| 20260505171435 | 24 | 222 | 6.4 | 8.0 | 0.00 | 0.00 | 0.00 | 83 | 1010.3 |
| 20260505170932 | 24 | 204 | 9.7 | 11.3 | 0.00 | 0.00 | 0.00 | 82 | 1010.7 |
| 20260505170429 | 24 | 224 | 4.8 | 9.7 | 0.00 | 0.00 | 0.00 | 83 | 1010.7 |
| 20260505165924 | 24 | 213 | 3.2 | 3.2 | 0.00 | 0.00 | 0.00 | 83 | 1010.7 |
| 20260505165420 | 24 | 205 | 6.4 | 8.0 | 0.00 | 0.00 | 0.00 | 83 | 1010.3 |
| 20260505164915 | 24 | 258 | 4.8 | 8.0 | 0.00 | 0.00 | 0.00 | 84 | 1010.7 |
| 20260505164413 | 23 | 254 | 6.4 | 8.0 | 0.00 | 0.00 | 0.00 | 84 | 1010.3 |
| 20260505163911 | 23 | 202 | 8.0 | 9.7 | 0.00 | 0.00 | 0.00 | 85 | 1010.3 |
| 20260505163410 | 23 | 211 | 6.4 | 8.0 | 0.00 | 0.00 | 0.00 | 86 | 1010.7 |
| 20260505162908 | 23 | 274 | 3.2 | 4.8 | 0.00 | 0.00 | 0.00 | 86 | 1010.3 |
| 20260505162403 | 23 | 217 | 8.0 | 11.3 | 0.00 | 0.00 | 0.00 | 87 | 1010.7 |
| 20260505161901 | 23 | 225 | 6.4 | 9.7 | 0.00 | 0.00 | 0.00 | 88 | 1010.7 |
| 20260505161357 | 22 | 249 | 1.6 | 4.8 | 0.00 | 0.00 | 0.00 | 88 | 1010.3 |
| 20260505160854 | 22 | 176 | 3.2 | 4.8 | 0.00 | 0.00 | 0.00 | 89 | 1010.7 |
| 20260505160353 | 22 | 208 | 4.8 | 4.8 | 0.00 | 0.00 | 0.00 | 89 | 1010.3 |
| 20260505153331 | 22 | 250 | 9.7 | 11.3 | 0.00 | 0.00 | 0.00 | 89 | 1010.7 |
| 20260505152828 | 22 | 255 | 3.2 | 4.8 | 0.00 | 0.00 | 0.00 | 90 | 1010.7 |
| 20260505152325 | 22 | 205 | 4.8 | 8.0 | 0.00 | 0.00 | 0.00 | 90 | 1010.7 |
| 20260505151820 | 22 | 215 | 4.8 | 4.8 | 0.00 | 0.00 | 0.00 | 90 | 1010.3 |
| 20260505151317 | 22 | 273 | 4.8 | 8.0 | 0.00 | 0.00 | 0.00 | 90 | 1010.3 |
| 20260505150814 | 22 | 69 | 4.8 | 8.0 | 0.00 | 0.00 | 0.00 | 91 | 1010.3 |
| 20260505150311 | 22 | 226 | 3.2 | 4.8 | 0.00 | 0.00 | 0.00 | 91 | 1010.3 |
| 20260505140235 | 22 | 281 | 6.4 | 8.0 | 0.00 | 0.00 | 0.00 | 91 | 1010.0 |
| 20260505130159 | 21 | 217 | 3.2 | 4.8 | 0.00 | 0.00 | 0.00 | 91 | 1009.6 |
| 20260505124649 | 21 | 154 | 8.0 | 11.3 | 0.00 | 0.00 | 0.00 | 91 | 1009.6 |
| 20260505124145 | 21 | 178 | 6.4 | 8.0 | 0.00 | 0.00 | 0.00 | 91 | 1009.3 |
| 20260505123641 | 21 | 199 | 1.6 | 3.2 | 0.00 | 0.00 | 0.00 | 91 | 1009.3 |
| 20260505123138 | 21 | 229 | 4.8 | 8.0 | 0.00 | 0.00 | 0.00 | 91 | 1009.3 |
| 20260505122635 | 21 | 238 | 4.8 | 4.8 | 0.00 | 0.00 | 0.00 | 91 | 1009.3 |
| 20260505122132 | 21 | 196 | 4.8 | 9.7 | 0.00 | 0.00 | 0.00 | 90 | 1009.0 |
| 20260505121629 | 21 | 167 | 4.8 | 8.0 | 0.00 | 0.00 | 0.00 | 90 | 1009.3 |
| 20260505121125 | 21 | 197 | 6.4 | 8.0 | 0.00 | 0.00 | 0.00 | 91 | 1009.3 |
| 20260505120621 | 21 | 227 | 4.8 | 8.0 | 0.00 | 0.00 | 0.00 | 91 | 1009.0 |
| 20260505120117 | 21 | 232 | 3.2 | 3.2 | 0.00 | 0.00 | 0.00 | 90 | 1008.6 |
| 20260505115612 | 21 | 201 | 8.0 | 9.7 | 0.00 | 0.00 | 0.00 | 90 | 1009.0 |
| 20260505115110 | 21 | 208 | 4.8 | 8.0 | 0.00 | 0.00 | 0.00 | 90 | 1009.0 |
| 20260505114606 | 21 | 184 | 11.3 | 14.5 | 0.00 | 0.00 | 0.00 | 90 | 1009.0 |
| 20260505114103 | 21 | 158 | 4.8 | 4.8 | 0.00 | 0.00 | 0.00 | 89 | 1008.6 |
| 20260505113559 | 21 | 234 | 11.3 | 14.5 | 0.00 | 0.00 | 0.00 | 89 | 1009.0 |
| 20260505113056 | 21 | 200 | 4.8 | 8.0 | 0.00 | 0.00 | 0.00 | 89 | 1009.0 |
| 20260505112552 | 21 | 129 | 8.0 | 11.3 | 0.00 | 0.00 | 0.00 | 88 | 1009.0 |
| 20260505112050 | 21 | 221 | 8.0 | 12.9 | 0.00 | 0.00 | 0.00 | 88 | 1009.0 |
| 20260505111544 | 21 | 173 | 6.4 | 8.0 | 0.00 | 0.00 | 0.00 | 88 | 1009.0 |
| 20260505111040 | 21 | 178 | 8.0 | 11.3 | 0.00 | 0.00 | 0.00 | 88 | 1009.3 |
| 20260505110537 | 21 | 201 | 3.2 | 4.8 | 0.00 | 0.00 | 0.00 | 88 | 1009.3 |
| 20260505102009 | 21 | 176 | 6.4 | 9.7 | 0.00 | 0.00 | 0.00 | 89 | 1009.0 |
| 20260505101508 | 21 | 215 | 0.0 | 0.0 | 0.00 | 0.00 | 0.00 | 89 | 1009.3 |
| 20260505101004 | 21 | 127 | 3.2 | 3.2 | 0.00 | 0.00 | 0.00 | 89 | 1009.3 |
| 20260505100501 | 21 | 217 | 6.4 | 8.0 | 0.00 | 0.00 | 0.00 | 89 | 1009.3 |
| 20260505095957 | 21 | 259 | 6.4 | 9.7 | 0.00 | 0.00 | 0.00 | 88 | 1009.0 |
| 20260505095454 | 21 | 226 | 8.0 | 11.3 | 0.00 | 0.00 | 0.00 | 88 | 1009.0 |
| 20260505094950 | 21 | 214 | 8.0 | 11.3 | 0.00 | 0.00 | 0.00 | 88 | 1009.0 |
| 20260505094447 | 21 | 144 | 6.4 | 8.0 | 0.00 | 0.00 | 0.00 | 88 | 1009.0 |
| 20260505093943 | 21 | 252 | 6.4 | 9.7 | 0.00 | 0.00 | 0.00 | 88 | 1009.3 |
| 20260505093440 | 21 | 223 | 6.4 | 11.3 | 0.00 | 0.00 | 0.00 | 88 | 1009.3 |
| 20260505092937 | 21 | 193 | 8.0 | 12.9 | 0.00 | 0.00 | 0.00 | 88 | 1009.0 |
| 20260505092435 | 21 | 164 | 6.4 | 9.7 | 0.00 | 0.00 | 0.00 | 88 | 1009.0 |
| 20260505091932 | 21 | 232 | 8.0 | 11.3 | 0.00 | 0.00 | 0.00 | 88 | 1009.3 |
| 20260505091430 | 21 | 184 | 6.4 | 9.7 | 0.00 | 0.00 | 0.00 | 88 | 1009.3 |
| 20260505090928 | 21 | 207 | 9.7 | 11.3 | 0.00 | 0.00 | 0.00 | 88 | 1009.3 |
| 20260505090426 | 21 | 261 | 0.0 | 1.6 | 0.00 | 0.00 | 0.00 | 88 | 1009.3 |
| 20260505085922 | 21 | 208 | 6.4 | 8.0 | 0.00 | 0.00 | 0.00 | 88 | 1009.6 |
| 20260505085420 | 21 | 201 | 6.4 | 11.3 | 0.00 | 0.00 | 0.00 | 88 | 1009.0 |
| 20260505084918 | 21 | 216 | 4.8 | 8.0 | 0.00 | 0.00 | 0.00 | 88 | 1009.0 |
| 20260505084416 | 21 | 209 | 8.0 | 11.3 | 0.00 | 0.00 | 0.00 | 88 | 1009.3 |
| 20260505083914 | 21 | 208 | 6.4 | 11.3 | 0.00 | 0.00 | 0.00 | 88 | 1009.3 |
| 20260505083411 | 21 | 145 | 6.4 | 9.7 | 0.00 | 0.00 | 0.00 | 88 | 1009.6 |
| 20260505082907 | 21 | 146 | 6.4 | 9.7 | 0.00 | 0.00 | 0.00 | 88 | 1010.0 |
| 20260505082403 | 21 | 153 | 6.4 | 9.7 | 0.00 | 0.00 | 0.00 | 88 | 1010.0 |
| 20260505081900 | 21 | 214 | 8.0 | 9.7 | 0.00 | 0.00 | 0.00 | 88 | 1009.6 |
| 20260505081357 | 21 | 187 | 6.4 | 9.7 | 0.00 | 0.00 | 0.00 | 88 | 1009.6 |
| 20260505080854 | 21 | 193 | 6.4 | 11.3 | 0.00 | 0.00 | 0.00 | 88 | 1010.0 |
| 20260505080350 | 21 | 208 | 12.9 | 16.1 | 0.00 | 0.00 | 0.00 | 88 | 1010.0 |
| 20260505075845 | 21 | 240 | 4.8 | 8.0 | 0.00 | 0.00 | 0.00 | 88 | 1009.6 |
| 20260505075342 | 21 | 222 | 11.3 | 17.7 | 0.00 | 0.00 | 0.00 | 87 | 1010.0 |
| 20260505074840 | 21 | 232 | 9.7 | 14.5 | 0.00 | 0.00 | 0.00 | 87 | 1010.0 |
| 20260505074337 | 21 | 211 | 8.0 | 12.9 | 0.00 | 0.00 | 0.00 | 87 | 1010.3 |
| 20260505073834 | 21 | 196 | 3.2 | 3.2 | 0.00 | 0.00 | 0.00 | 87 | 1010.0 |
| 20260505073332 | 21 | 210 | 4.8 | 8.0 | 0.00 | 0.00 | 0.00 | 87 | 1010.0 |
| 20260505072829 | 21 | 191 | 9.7 | 11.3 | 0.00 | 0.00 | 0.00 | 87 | 1010.0 |
| 20260505072325 | 21 | 148 | 4.8 | 8.0 | 0.00 | 0.00 | 0.00 | 87 | 1010.3 |
| 20260505071821 | 21 | 163 | 9.7 | 14.5 | 0.00 | 0.00 | 0.00 | 87 | 1010.3 |
| 20260505071317 | 21 | 144 | 14.5 | 20.9 | 0.00 | 0.00 | 0.00 | 87 | 1010.3 |
| 20260505070816 | 21 | 218 | 11.3 | 12.9 | 0.00 | 0.00 | 0.00 | 87 | 1010.7 |
| 20260505070312 | 21 | 208 | 3.2 | 4.8 | 0.00 | 0.00 | 0.00 | 87 | 1010.7 |
| 20260505065807 | 21 | 199 | 8.0 | 11.3 | 0.00 | 0.00 | 0.00 | 87 | 1010.7 |
| 20260505065304 | 21 | 240 | 6.4 | 9.7 | 0.00 | 0.00 | 0.00 | 87 | 1010.7 |
| 20260505064801 | 21 | 259 | 9.7 | 12.9 | 0.00 | 0.00 | 0.00 | 87 | 1010.7 |
| 20260505064258 | 21 | 224 | 8.0 | 14.5 | 0.00 | 0.00 | 0.00 | 87 | 1010.7 |
| 20260505063756 | 21 | 253 | 4.8 | 8.0 | 0.00 | 0.00 | 0.00 | 87 | 1010.7 |
| 20260505063252 | 21 | 201 | 3.2 | 4.8 | 0.00 | 0.00 | 0.00 | 87 | 1010.7 |
| 20260505062749 | 21 | 213 | 1.6 | 3.2 | 0.00 | 0.00 | 0.00 | 87 | 1010.7 |
| 20260505062246 | 21 | 198 | 4.8 | 4.8 | 0.00 | 0.00 | 0.00 | 87 | 1011.0 |
| 20260505061743 | 21 | 164 | 4.8 | 8.0 | 0.00 | 0.00 | 0.00 | 86 | 1010.7 |
| 20260505061241 | 21 | 194 | 11.3 | 14.5 | 0.00 | 0.00 | 0.00 | 86 | 1011.0 |
| 20260505060738 | 21 | 160 | 4.8 | 8.0 | 0.00 | 0.00 | 0.00 | 86 | 1011.0 |
| 20260505060235 | 21 | 240 | 11.3 | 14.5 | 0.00 | 0.00 | 0.00 | 86 | 1011.0 |
| 20260505055730 | 21 | 151 | 4.8 | 8.0 | 0.00 | 0.00 | 0.00 | 86 | 1011.0 |
| 20260505055227 | 21 | 190 | 4.8 | 8.0 | 0.00 | 0.00 | 0.00 | 86 | 1011.0 |
| 20260505054724 | 21 | 189 | 4.8 | 4.8 | 0.00 | 0.00 | 0.00 | 86 | 1011.3 |
| 20260505054222 | 21 | 153 | 3.2 | 4.8 | 0.00 | 0.00 | 0.00 | 85 | 1011.3 |
| 20260505053720 | 21 | 157 | 9.7 | 12.9 | 0.00 | 0.00 | 0.00 | 85 | 1011.0 |
| 20260505053216 | 21 | 177 | 6.4 | 8.0 | 0.00 | 0.00 | 0.00 | 85 | 1011.0 |
| 20260505052714 | 21 | 223 | 8.0 | 11.3 | 0.00 | 0.00 | 0.00 | 85 | 1011.0 |
| 20260505052210 | 21 | 131 | 6.4 | 9.7 | 0.00 | 0.00 | 0.00 | 85 | 1011.0 |
| 20260505051708 | 21 | 154 | 11.3 | 14.5 | 0.00 | 0.00 | 0.00 | 85 | 1011.0 |
| 20260505051206 | 21 | 228 | 8.0 | 11.3 | 0.00 | 0.00 | 0.00 | 85 | 1010.7 |
| 20260505050703 | 21 | 222 | 3.2 | 3.2 | 0.00 | 0.00 | 0.00 | 85 | 1011.0 |
| 20260505050201 | 21 | 206 | 4.8 | 8.0 | 0.00 | 0.00 | 0.00 | 85 | 1011.0 |
| 20260505041631 | 22 | 241 | 4.8 | 4.8 | 0.00 | 0.00 | 0.00 | 83 | 1011.0 |
| 20260505041128 | 22 | 214 | 8.0 | 9.7 | 0.00 | 0.00 | 0.00 | 83 | 1011.0 |
| 20260505040625 | 22 | 117 | 6.4 | 9.7 | 0.00 | 0.00 | 0.00 | 83 | 1010.7 |
| 20260505040122 | 22 | 195 | 6.4 | 8.0 | 0.00 | 0.00 | 0.00 | 83 | 1011.3 |
| 20260505035619 | 22 | 186 | 1.6 | 3.2 | 0.00 | 0.00 | 0.00 | 82 | 1011.0 |
| 20260505035115 | 22 | 243 | 3.2 | 4.8 | 0.00 | 0.00 | 0.00 | 82 | 1010.7 |
| 20260505034612 | 22 | 178 | 4.8 | 8.0 | 0.00 | 0.00 | 0.00 | 82 | 1010.7 |
| 20260505034109 | 22 | 222 | 3.2 | 4.8 | 0.00 | 0.00 | 0.00 | 81 | 1010.7 |
| 20260505033605 | 22 | 204 | 3.2 | 8.0 | 0.00 | 0.00 | 0.00 | 80 | 1011.0 |
| 20260505033104 | 23 | 188 | 6.4 | 8.0 | 0.00 | 0.00 | 0.00 | 80 | 1010.7 |
| 20260505032601 | 23 | 180 | 6.4 | 8.0 | 0.00 | 0.00 | 0.00 | 79 | 1010.7 |
| 20260505032057 | 23 | 184 | 1.6 | 3.2 | 0.00 | 0.00 | 0.00 | 79 | 1011.0 |
| 20260505031555 | 23 | 193 | 3.2 | 4.8 | 0.00 | 0.00 | 0.00 | 79 | 1010.7 |
| 20260505031051 | 23 | 157 | 1.6 | 3.2 | 0.00 | 0.00 | 0.00 | 79 | 1010.7 |
| 20260505030548 | 23 | 189 | 3.2 | 4.8 | 0.00 | 0.00 | 0.00 | 78 | 1010.7 |
| 20260505030044 | 23 | 232 | 1.6 | 3.2 | 0.00 | 0.00 | 0.00 | 78 | 1011.3 |
| 20260505025540 | 23 | 202 | 4.8 | 4.8 | 0.00 | 0.00 | 0.00 | 77 | 1010.7 |
| 20260505025039 | 23 | 209 | 8.0 | 9.7 | 0.00 | 0.00 | 0.00 | 77 | 1011.0 |
| 20260505024536 | 23 | 192 | 8.0 | 9.7 | 0.00 | 0.00 | 0.00 | 77 | 1011.0 |
| 20260505024033 | 23 | 177 | 8.0 | 14.5 | 0.00 | 0.00 | 0.00 | 77 | 1010.7 |
| 20260505023530 | 23 | 232 | 4.8 | 4.8 | 0.00 | 0.00 | 0.00 | 76 | 1010.7 |
| 20260505023027 | 23 | 218 | 1.6 | 3.2 | 0.00 | 0.00 | 0.00 | 76 | 1010.7 |
| 20260505022525 | 23 | 189 | 9.7 | 12.9 | 0.00 | 0.00 | 0.00 | 76 | 1010.7 |
| 20260505022022 | 23 | 184 | 4.8 | 4.8 | 0.00 | 0.00 | 0.00 | 75 | 1010.7 |
| 20260505021518 | 24 | 174 | 8.0 | 11.3 | 0.00 | 0.00 | 0.00 | 75 | 1010.7 |
| 20260505021014 | 24 | 190 | 1.6 | 3.2 | 0.00 | 0.00 | 0.00 | 75 | 1010.7 |
| 20260505020509 | 24 | 244 | 1.6 | 3.2 | 0.00 | 0.00 | 0.00 | 74 | 1010.7 |
| 20260505020006 | 24 | 207 | 6.4 | 11.3 | 0.00 | 0.00 | 0.00 | 74 | 1010.7 |